Regional Weather Roundup
Issued by NWS Albany, NY

Home | Current Version | Previous Version | Graphics & Text | Print | Product List | Glossary Off
Versions: 1 2 3 4 5 6 7 8 9 10 11 12 13 14 15 16 17 18 19 20 21 22 23 24 25 26 27 28 29 30 31 32 33 34 35 36 37 38 39 40 41 42 43 44 45 46 47 48 49 50

000
ASUS41 KALY 231310
RWRALY

NEW YORK STATE HOURLY WEATHER ROUNDUP
NATIONAL WEATHER SERVICE ALBANY NY
900 AM EDT SAT JUL 23 2016

NOTE: "FAIR" INDICATES FEW OR NO CLOUDS BELOW 12,000 FEET WITH NO
SIGNIFICANT WEATHER AND/OR NO OBSTRUCTIONS TO VISIBILITY.

NYZ032-033-038>043-046>054-057>066-NYZ062>081-082-084-231400-
EAST


CITY           SKY/WX    TMP DP  RH WIND       PRES   REMARKS
ALBANY         MOSUNNY   79  62  56 W14       29.82S
GLENS FALLS    SUNNY     79  62  56 W7        29.81R
POUGHKEEPSIE   SUNNY     81  65  58 CALM      29.84S
NEWBURGH       SUNNY     79  68  69 W14       29.88S
MONTGOMERY     SUNNY     81  67  62 NW7       29.87S
WHITE PLAINS   SUNNY     83  64  52 W8        29.87R
ISLIP          SUNNY     86  63  45 NW14G22   29.84S
NEW YORK CITY  MOSUNNY   86  64  47 NW13G20   29.86R
CENTRAL PARK   SUNNY     84  64  50 NW9       29.89S
$$

NYZ005>009-017-018-044>046-055-056-231400-
CENTRAL


CITY           SKY/WX    TMP DP  RH WIND       PRES   REMARKS
FULTON         SUNNY     80  64  58 W12       29.87R
SYRACUSE       MOSUNNY   78  62  57 W9        29.86S
ROME           SUNNY     74  65  73 W8        29.87F
ELMIRA         SUNNY     79  62  56 SW12      29.92S
BINGHAMTON     SUNNY     76  58  53 NW8       29.93F
MONTICELLO     SUNNY     75  64  69 NW7       29.93F
$$

NYZ026>034-041>043-087-231400-
NORTH


CITY           SKY/WX    TMP DP  RH WIND       PRES   REMARKS
WATERTOWN      SUNNY     77  62  59 W6        29.83F
FORT DRUM      NOT AVBL
MASSENA        SUNNY     73  64  73 W8        29.80S
SARANAC LAKE   SUNNY     69  60  73 W8        29.85S
PLATTSBURGH    PTSUNNY   71  67  87 CALM      29.77F
$$

NYZ001>004-010>016-019>021-085-231400-
WEST


CITY           SKY/WX    TMP DP  RH WIND       PRES   REMARKS
NIAGARA FALLS  MOSUNNY   83  58  42 NW13      29.93R
BUFFALO        MOSUNNY   80  58  46 W10       29.94R
DUNKIRK        SUNNY     79  70  74 SW7       29.96S
JAMESTOWN      SUNNY     75  64  69 CALM      30.02S
WELLSVILLE     SUNNY     75  62  64 W9        30.02F
ROCHESTER      SUNNY     79  61  53 W13       29.91R
PENN YAN       SUNNY     81  56  42 W8        29.92F
$$

             KEY
       WCI = WIND CHILL INDEX
       VSB = VISIBILITY
       HX  = HEAT INDEX
$$



USA.gov is the U.S. government's official web portal to all federal, state and local government web resources and services.